Flag for United Kingdom Weather past 2 weeks in Leeds, England, United Kingdom

Now
37 °F

Light rain. Passing clouds.


Feels Like: 32 °F
Forecast: N/A
Wind: 7 mph from Southeast

Location: Leeds And Bradford

Current Time: Dec 26, 2014 at 5:09:23 PM

Latest Report: Dec 26, 2014 at 4:20 PM


Visibility: 5 mi

Pressure: 30.01 "Hg

Humidity: 93%

Dew point: 36 °F

Location of LeedsLocation

Historic Weather in Leeds — Graph

°F

Leeds temperature yesterday

Maximum temperature yesterday: 41 °F (at 12:20 AM)
Minimum temperature yesterday: 34 °F (at 11:20 PM)
Average temperature yesterday: 39 °F

Past Weeks' High & Low Weather Summary

 TemperatureHumidityPressure
High54 °F (Dec 18, 1:20 PM)100% (Dec 11, 5:50 PM)30.42 "Hg (Dec 11, 5:50 PM)
Low28 °F (Dec 13, 6:20 AM)71% (Dec 19, 11:50 AM)29.12 "Hg (Dec 12, 4:20 AM)
Average43 °F89%29.79 "Hg
* Reported Dec 11 3:20 PM — Dec 26 3:20 PM, Leeds, Weather by CustomWeather, © 2014

Note: Actual official high and low records may vary slightly from our data, if they occured in-between our weather recording intervals... More about our weather records

Advertising

Leeds weather history for previous 24 hours

 ConditionsComfort  
Time TempWeatherWind HumidityBarometerVisibility
3:20 PM
Dec 26
37 °FPassing clouds.6 mph93%30.04 "HgN/A
2:50 PM37 °FPassing clouds.6 mph100%30.07 "HgN/A
2:20 PM39 °FPassing clouds.5 mph93%30.09 "HgN/A
1:50 PM39 °FPassing clouds.5 mph93%30.12 "HgN/A
1:20 PM39 °FPassing clouds.6 mph87%30.15 "HgN/A
12:50 PM39 °FPassing clouds.6 mph93%30.15 "HgN/A
12:20 PM39 °FPassing clouds.7 mph93%30.18 "HgN/A
11:50 AM39 °FPassing clouds.6 mph93%30.21 "HgN/A
11:20 AM39 °FScattered clouds.5 mph93%30.24 "HgN/A
10:50 AM37 °FScattered clouds.5 mph100%30.24 "HgN/A
10:20 AM37 °FScattered clouds.6 mph100%30.27 "HgN/A
9:50 AM37 °FScattered clouds.5 mph93%30.30 "HgN/A
9:20 AM37 °FScattered clouds.6 mph100%30.30 "HgN/A
8:50 AM37 °FScattered clouds.7 mph93%30.30 "Hg4 mi
8:20 AM37 °FPassing clouds.5 mph93%30.30 "Hg4 mi
7:50 AM36 °FPassing clouds.5 mph100%30.30 "Hg4 mi
7:20 AM36 °FPartly cloudy.5 mph100%30.33 "Hg4 mi
6:50 AM36 °FFog.3 mph100%30.33 "Hg3 mi
6:20 AM36 °FFog.3 mph100%30.33 "Hg3 mi
5:50 AM34 °FFog.6 mph100%30.33 "Hg3 mi
5:20 AM34 °FFog.3 mph100%30.36 "Hg2 mi
4:50 AM34 °FLight rain. Partly cloudy.5 mph100%30.36 "Hg2 mi
4:20 AM34 °FSprinkles. Partly cloudy.3 mph100%30.36 "Hg4 mi
3:20 AM34 °FPassing clouds.5 mph100%30.39 "HgN/A
2:50 AM34 °FPassing clouds.2 mph93%30.39 "HgN/A
2:20 AM34 °FPassing clouds.3 mph93%30.39 "HgN/A
1:50 AM32 °FPassing clouds.6 mph100%30.39 "HgN/A
1:20 AM34 °FPassing clouds.7 mph93%30.39 "HgN/A
12:50 AM34 °FPassing clouds.5 mph93%30.39 "HgN/A
12:20 AM34 °FClear.5 mph100%30.42 "Hg10 mi
11:50 PM
Dec 25
34 °FClear.3 mph93%30.42 "Hg10 mi
11:20 PM34 °FClear.3 mph93%30.42 "Hg10 mi
10:20 PM36 °FClear.1 mph87%30.42 "Hg10 mi
9:50 PM36 °FPassing clouds.3 mph87%30.42 "HgN/A
9:20 PM36 °FPassing clouds.5 mph87%30.42 "HgN/A
8:50 PM36 °FPassing clouds.6 mph87%30.42 "HgN/A
8:20 PM37 °FPassing clouds.8 mph81%30.42 "HgN/A
7:50 PM37 °FPassing clouds.9 mph87%30.42 "HgN/A
7:20 PM39 °FPassing clouds.8 mph81%30.39 "HgN/A
6:50 PM39 °FPassing clouds.8 mph87%30.39 "HgN/A
6:20 PM39 °FScattered showers. Passing clouds.12 mph93%30.39 "HgN/A
5:50 PM39 °FScattered showers. Passing clouds.8 mph93%30.39 "HgN/A
5:20 PM39 °FPassing clouds.9 mph93%30.36 "HgN/A
Weather by CustomWeather, © 2014

See weather overviewHow to use our weather pages